User: anonymous   Login
Location: Fort Wayne
(41.1310°N, 85.1290°W)
Time: 18:35:48
(UTC-05:00)
Language:

Cosmos 2056 Rocket - Orbit

View from above orbital plane
View from above orbital plane
View from above satellite
View from above satellite

Ground track
Ground track

The orbit data is extracted from the following two-line orbital elements,

1 20433U 90004B   14325.86583260  .00000314  00000-0  11677-3 0  8710
2 20433 074.0371 278.4694 0042481 276.5420 145.1727 14.35717628300522
Epoch (UTC): 21 November 2014 20:46:47
Eccentricity: 0.0042481
inclination: 74.0371°
perigee height: 742 km
apogee height: 803 km
right ascension of ascending node: 278.4694°
argument of perigee: 276.5420°
revolutions per day: 14.35717628
mean anomaly at epoch: 145.1727°
orbit number at epoch: 30052

The dashed part of the orbit path shows where the satellite is in the earth's shadow,  

DLR